Location: Congrier
(47.8099°N, 1.1170°W)
Time: 14:38:26
(UTC+00:00)

Cosmos 1553 Rocket - Pass Details

Date: 28 January 2023
Orbit: 942 x 1007 km, 82.9° (Epoch: 25 March)

Event Time Altitude Azimuth Distance (km) Brightness Sun altitude
Rises 18:53:19 0° 164° (SSE) 3,593 6.9 -19.3°
Reaches altitude 10° 18:55:54 10° 157° (SSE) 2,654 6.1 -19.7°
Maximum altitude 19:01:31 42° 89° (E) 1,333 4.2 -20.6°
Drops below altitude 10° 19:07:13 10° 21° (NNE) 2,692 6.1 -21.6°
Sets 19:09:51 0° 15° (NNE) 3,650 6.8 -22.0°
